Home   Weather   Cochabamba   Past weeks

Flag for Bolivia Past Weather in Cochabamba, Bolivia — Yesterday and Last 2 Weeks

Now
66 °F

Passing clouds.


Feels Like: 66 °F
Forecast: 52 / 78 °F
Wind: 6 mph from Southwest

Location: Cochabamba Airport

Current Time: Apr 24, 2017 at 10:52:41 pm

Latest Report: Apr 24, 2017 at 10:00 pm


Visibility: N/A

Pressure: 30.15 "Hg (22.29 "Hg at 2584m altitude)

Humidity: 46%

Dew Point: 45 °F

Location of CochabambaLocation

Past Weather in Cochabamba — Graph

°F

Cochabamba Temperature Yesterday

Maximum temperature yesterday: 81 °F (at 2:00 pm)
Minimum temperature yesterday: 50 °F (at 5:00 am)
Average temperature yesterday: 65 °F

High & Low Weather Summary for the Past Weeks

 TemperatureHumidityPressure
High84 °F (Apr 19, 3:00 pm)88% (Apr 19, 6:00 am)30.36 "Hg (Apr 19, 6:00 am)
Low45 °F (Apr 20, 7:00 am)7% (Apr 20, 4:00 pm)30.01 "Hg (Apr 19, 3:00 pm)
Average65 °F47%30.20 "Hg
* Reported Apr 19 3:00 am — Apr 24 9:00 pm, Cochabamba, Weather by CustomWeather, © 2017

Note: Actual official high and low records may vary slightly from our data, if they occured in-between our weather recording intervals... More about our weather records

Advertising

Cochabamba Weather History for the Previous 24 Hours

Scroll right to see more
 ConditionsComfort  
Time TempWeatherWind HumidityBarometerVisibility
9:00 pm
Mon, Apr 24
68 °FPassing clouds.12 mph43%30.12 "HgN/A
8:00 pm66 °FPassing clouds.7 mph43%30.09 "HgN/A
7:00 pm68 °FPassing clouds.2 mph40%30.07 "HgN/A
6:00 pm73 °FPartly sunny.6 mph36%30.07 "HgN/A
5:00 pm79 °FScattered clouds.9 mph28%30.07 "HgN/A
4:00 pm79 °FScattered clouds.14 mph30%30.04 "HgN/A
3:00 pm81 °FPartly sunny.7 mph26%30.07 "HgN/A
2:00 pm81 °FScattered clouds.3 mph23%30.09 "HgN/A
1:00 pm79 °FScattered clouds.5 mph23%30.12 "HgN/A
12:00 pm75 °FPartly sunny.5 mph29%30.18 "HgN/A
11:00 am73 °FPartly sunny.No wind33%30.24 "HgN/A
10:00 am70 °FPartly sunny.No wind38%30.27 "HgN/A
9:00 am66 °FPartly sunny.No wind46%30.27 "HgN/A
8:00 am57 °FPartly sunny.No wind67%30.24 "Hg5 mi
7:00 am50 °FScattered clouds.3 mph82%30.24 "Hg4 mi
6:00 am52 °FPassing clouds.No wind77%30.21 "HgN/A
5:00 am52 °FClear.No wind77%30.21 "HgN/A
4:00 am63 °FClear.No wind77%30.21 "HgN/A
3:00 am54 °FClear.No wind72%30.21 "HgN/A
2:00 am55 °FClear.No wind67%30.21 "HgN/A
1:00 am55 °FClear.No wind72%30.24 "HgN/A
12:00 am61 °FClear.3 mph55%30.24 "HgN/A
11:00 pm
Sun, Apr 23
63 °FClear.3 mph52%30.21 "HgN/A
10:00 pm64 °FClear.3 mph46%30.21 "HgN/A
Weather by CustomWeather, © 2017

See weather overviewHow to use our weather pages